Regional Weather Roundup
Issued by NWS

Home | Current Version | Previous Version | Text Only | Print | Product List | Glossary Off
Versions: 1 2 3 4 5 6 7 8 9 10 11 12 13 14 15 16 17 18 19 20 21 22 23 24 25 26 27 28 29 30 31 32 33 34 35 36 37 38 39 40 41 42 43 44 45 46 47 48 49 50

000
ASUS43 KDTX 051510
RWRMI
MICHIGAN HOURLY REGIONAL WEATHER ROUNDUP
NATIONAL WEATHER SERVICE DETROIT/PONTIAC MI
1100 AM EDT TUE MAY 05 2015

NOTE: "FAIR" INDICATES FEW OR NO CLOUDS BELOW 12,000 FEET WITH NO
SIGNIFICANT WEATHER AND/OR OBSTRUCTION TO VISIBILITY.

MIZ047>049-052>055-059>063-066>070-074>076-081>083-051600-
SOUTHEAST LOWER MICHIGAN

CITY           SKY/WX    TMP DP  RH WIND       PRES   REMARKS
ADRIAN         LGT RAIN  51  45  79 E7        30.30R
ALMA           LGT RAIN  50  46  86 CALM      30.35S
ANN ARBOR      LGT RAIN  52  43  71 NE6       30.30S
BAD AXE        CLOUDY    49  40  69 CALM      30.34R
CARO           LGT RAIN  49  43  80 CALM      30.34R
DETROIT CITY   CLOUDY    56  36  47 NE6       30.30R
DETROIT        LGT RAIN  57  38  48 CALM      30.30R
FLINT          LGT RAIN  52  42  69 CALM      30.35R
GROSSE ILE     LGT RAIN  54  43  66 CALM      30.28R
HILLSDALE      LGT RAIN  50  47  88 E13       30.26F
HOWELL         MIX PCPN  47  44  90 N3        30.32S VSB 3/4

CITY           SKY/WX    TMP DP  RH WIND       PRES   REMARKS
JACKSON        LGT RAIN  49  45  86 NE8       30.30S
LAMBERTVILLE   CLOUDY    55  43  62 CALM      30.30R
LANSING        LGT RAIN  48  42  80 NE7       30.33S
LAPEER         HVY RAIN  47  43  84 CALM      30.33R
MASON          RAIN      48  43  84 NE6       30.31S
MONROE         RAIN      55  45  67 CALM      30.28R
PONTIAC        LGT RAIN  54  37  52 N10       30.30R
PORT HOPE        N/A     45  38  76 NW8       30.32R
PORT HURON     CLOUDY    48  39  71 N6        30.32S
TRI CITIES     LGT RAIN  53  43  68 N3        30.35R
MIDLAND        DRIZZLE   53  38  56 CALM      30.35R
TROY           LGT RAIN  55  39  54 N6        30.32R
SAGINAW HB     LGT RAIN  52  45  76 CALM      30.34R
$$
MIZ043>046-050>051-056>058-064>065-071>073-077>080-051600-
SOUTHWEST LOWER MICHIGAN

CITY           SKY/WX    TMP DP  RH WIND       PRES   REMARKS
BATTLE CREEK   LGT RAIN  50  47  89 E16       30.26F
BENTON HARBOR  CLOUDY    54  52  93 E12       30.22S
BIG RAPIDS     LGT RAIN  50  41  70 E5        30.32F
COLDWATER      CLOUDY    53  49  89 E10       30.26R
FREMONT        DRIZZLE   48  42  79 E9G16     30.30F
HOLLAND        LGT RAIN  52  48  86 E14G25    30.25F
GRAND RAPIDS   LGT RAIN  51  47  86 E15       30.28F
IONIA          LGT RAIN  50  43  77 E8        30.32S
KALAMAZOO      LGT RAIN  51  47  86 NE8       30.27F
LUDINGTON      CLOUDY    56  35  46 E10       30.31F
MARSHALL       HVY RAIN  47  45  93 E9        30.27S
MOUNT PLEASANT RAIN      51  40  66 CALM      30.34S
MUSKEGON       LGT RAIN  50  45  83 E12       30.28F
SOUTH HAVEN    LGT RAIN  53  50  90 E14G24    30.23F
$$
MIZ016>042-051600-
NORTHERN LOWER MICHIGAN

CITY           SKY/WX    TMP DP  RH WIND       PRES   REMARKS
ALPENA         CLOUDY    57  40  52 N5        30.35S
BEAVER ISLAND  SUNNY     58  34  40 E8        30.36S
BELLAIRE       PTSUNNY   54  37  52 CALM      30.35S
CADILLAC       CLOUDY    51  35  54 E8        30.33S
CHARLEVOIX     MOSUNNY   53  40  60 N3        30.38S
FRANKFORT      PTSUNNY   58  26  29 E10       30.33S
GAYLORD        PTSUNNY   56  31  38 NE8       30.35S
GRAYLING       CLOUDY    52  36  55 CALM      30.35S
HARBOR SPRINGS MOSUNNY   60  36  41 SE6       30.36R
HOUGHTON LAKE  CLOUDY    52  37  56 CALM      30.35R
MANISTEE       CLOUDY    52  34  50 SE8       30.33S
OSCODA         CLOUDY    54  41  62 NW3       30.33S
PELLSTON       MOSUNNY   61  30  31 E9        30.36S
ROGERS CITY    PTSUNNY   51  38  60 CALM      30.38R
TRAVERSE CITY  CLOUDY    50  37  61 CALM      30.34F
$$
MIZ007>008-015-051600-
EASTERN UPPER MICHIGAN

CITY           SKY/WX    TMP DP  RH WIND       PRES   REMARKS
KINROSS        SUNNY     59  32  36 CALM      30.36R
MACKINAC ISLAN MOSUNNY   56  32  39 NE6       30.36R
NEWBERRY       SUNNY     61  32  33 CALM      30.35S
S. S. MARIE    SUNNY     59  36  42 CALM      30.35S
MUNISING         N/A     49  37  63 CALM      30.33S
$$
MIZ004>006-011>014-085-051600-
CENTRAL UPPER MICHIGAN

CITY           SKY/WX    TMP DP  RH WIND       PRES   REMARKS
MANISTIQUE     SUNNY     54  36  51 S6        30.35S
ESCANABA       MOSUNNY   55  36  47 E6        30.35S
MENOMINEE      MOSUNNY   54  36  50 E6        30.34S
SAWYER-GWINN   SUNNY     61  30  31 SW5       30.33F
$$
MIZ001>003-009>011-084-051600-
WESTERN UPPER MICHIGAN

CITY           SKY/WX    TMP DP  RH WIND       PRES   REMARKS
IRON MOUNTAIN  SUNNY     60  31  33 SE8       30.32S
HOUGHTON       SUNNY     62  25  24 S7        30.31S
COPPER HARBOR    N/A     50  30  46 CALM      30.32R
IRONWOOD       SUNNY     63  28  27 E10G17    30.27F
$$

ABBREVIATIONS USED IN REMARKS
   TC - TEMPERATURE IN CELSIUS
  WCI - WIND CHILL INDEX
   HX - HEAT INDEX
  VSB - VISIBILITY




USA.gov is the U.S. government's official web portal to all federal, state and local government web resources and services.